FW5359 Weather Reports


time (UTC)temp
C
wind
direction
speed
KPH
gust
KPH
rain 1hr
cm
rain 24hr
cm
rain mn
cm
humidity
%
barometer
mb
20260901081210 25 158 1.6 8.0 0.00 0.03 0.00 83 1017.8
20260901080710 26 158 1.6 8.0 0.00 0.03 0.00 83 1017.8
20260901080210 26 158 1.6 9.7 0.00 0.03 0.00 83 1017.7
20260901075707 26 158 3.2 9.7 0.00 0.03 0.00 83 1017.7
20260901075207 26 159 3.2 9.7 0.00 0.03 0.00 82 1017.7
20260901074707 26 157 3.2 11.3 0.00 0.03 0.00 82 1017.8
20260901074206 26 157 3.2 11.3 0.00 0.03 0.00 82 1017.7
20260901073936 26 155 1.6 9.7 0.00 0.03 0.00 81 1017.7
20260901073206 26 167 1.6 9.7 0.00 0.03 0.00 81 1017.8
20260901072704 26 171 1.6 9.7 0.00 0.03 0.00 80 1017.8
20260901072204 26 180 3.2 8.0 0.00 0.03 0.00 80 1017.8
20260901071935 26 216 3.2 8.0 0.00 0.03 0.00 79 1017.9
20260901071203 26 167 1.6 8.0 0.00 0.03 0.00 79 1018.1
20260901070149 26 167 3.2 9.7 0.00 0.03 0.00 78 1018.1
20260901065643 26 167 3.2 9.7 0.00 0.03 0.00 78 1017.9
20260901065137 26 166 3.2 11.3 0.00 0.03 0.00 78 1017.8
20260901064631 26 165 3.2 11.3 0.00 0.03 0.00 77 1017.7
20260901064355 26 200 3.2 12.9 0.00 0.03 0.00 77 1017.7
20260901063619 26 171 3.2 12.9 0.00 0.03 0.00 77 1017.7
20260901063113 26 207 1.6 11.3 0.00 0.03 0.00 76 1017.7
20260901062606 27 164 3.2 8.0 0.00 0.03 0.00 76 1017.7
20260901062101 27 164 3.2 11.3 0.00 0.03 0.00 76 1017.7
20260901061554 27 164 3.2 11.3 0.00 0.03 0.00 75 1017.6
20260901061053 27 163 1.6 9.7 0.00 0.03 0.00 75 1017.6
20260901060554 27 158 3.2 9.7 0.00 0.03 0.00 74 1017.6
20260901060054 27 164 3.2 9.7 0.00 0.03 0.00 74 1017.5
20260901055552 27 168 3.2 9.7 0.00 0.03 0.00 73 1017.5
20260901055049 27 169 3.2 12.9 0.00 0.03 0.00 73 1017.3
20260901054549 27 148 1.6 12.9 0.00 0.03 0.00 72 1017.4
20260901054049 27 146 1.6 8.0 0.00 0.03 0.00 72 1017.4
20260901053547 27 145 1.6 11.3 0.00 0.03 0.00 72 1017.4
20260901053045 27 145 3.2 11.3 0.00 0.03 0.00 71 1017.3
20260901052543 27 145 3.2 11.3 0.00 0.03 0.00 71 1017.3
20260901052042 27 157 4.8 11.3 0.00 0.03 0.00 71 1017.2
20260901051539 27 148 3.2 11.3 0.00 0.03 0.00 71 1017.2
20260901051037 27 162 3.2 12.9 0.00 0.03 0.00 71 1017.3
20260901050810 27 150 3.2 12.9 0.00 0.03 0.00 70 1017.2
20260901050037 27 161 3.2 9.7 0.00 0.03 0.00 70 1017.3
20260901045536 28 158 3.2 14.5 0.00 0.03 0.03 70 1017.2
20260901045036 28 158 1.6 14.5 0.00 0.03 0.03 69 1017.3
20260901044533 28 134 1.6 6.4 0.00 0.03 0.03 69 1017.2
20260901044032 28 134 1.6 6.4 0.00 0.03 0.03 69 1017.1
20260901043532 28 134 1.6 11.3 0.00 0.03 0.03 69 1017.0
20260901043033 28 154 1.6 11.3 0.00 0.03 0.03 69 1017.1
20260901042533 28 188 1.6 4.8 0.00 0.03 0.03 69 1017.0
20260901042033 28 188 0.0 4.8 0.00 0.03 0.03 69 1017.0
20260901041533 28 189 1.6 8.0 0.00 0.03 0.03 69 1016.9
20260901040804 28 195 3.2 11.3 0.00 0.03 0.03 69 1016.7
20260901040026 28 169 1.6 9.7 0.00 0.03 0.03 69 1016.8
20260901035520 28 177 3.2 11.3 0.00 0.03 0.03 69 1016.7
20260901035014 28 155 3.2 14.5 0.00 0.03 0.03 70 1016.7
20260901034508 28 161 3.2 14.5 0.00 0.03 0.03 70 1016.6
20260901034005 28 164 1.6 11.3 0.00 0.03 0.03 71 1016.6
20260901033735 28 132 1.6 11.3 0.00 0.03 0.03 71 1016.6
20260901033236 28 120 1.6 11.3 0.00 0.03 0.03 71 1016.6
20260901032505 28 182 1.6 8.0 0.03 0.03 0.03 72 1016.6
20260901032003 28 182 1.6 9.7 0.03 0.03 0.03 72 1016.6
20260901031504 28 189 3.2 14.5 0.03 0.03 0.03 72 1016.5
20260901031004 27 196 3.2 14.5 0.03 0.03 0.03 73 1016.5
20260901030733 27 192 3.2 9.7 0.03 0.03 0.03 74 1016.4
20260901030004 27 150 1.6 9.7 0.03 0.03 0.03 75 1016.3
20260901025500 27 117 1.6 9.7 0.03 0.03 0.03 76 1016.4
20260901024456 27 144 1.6 8.0 0.03 0.03 0.03 76 1016.1
20260901023956 28 171 1.6 8.0 0.03 0.03 0.03 75 1016.0
20260901023456 28 175 1.6 6.4 0.03 0.03 0.03 74 1015.9
20260901022959 29 176 4.8 16.1 0.03 0.03 0.03 70 1015.8
20260901022456 31 165 6.4 16.1 0.00 0.00 0.00 66 1015.7
20260901021956 31 195 3.2 16.1 0.00 0.00 0.00 58 1015.7
20260901021728 31 104 3.2 11.3 0.00 0.00 0.00 56 1015.5
20260901020950 31 96 3.2 11.3 0.00 0.00 0.00 56 1015.4
20260901020444 31 92 3.2 12.9 0.00 0.00 0.00 55 1015.3
20260901015938 31 110 3.2 16.1 0.00 0.00 0.00 54 1015.2
20260901015432 31 93 1.6 16.1 0.00 0.00 0.00 53 1015.0
20260901014926 31 65 0.0 0.0 0.00 0.00 0.00 52 1015.0
20260901014420 31 65 0.0 0.0 0.00 0.00 0.00 52 1014.9
20260901013914 31 65 0.0 0.0 0.00 0.00 0.00 52 1014.9
20260901013408 32 65 0.0 3.2 0.00 0.00 0.00 51 1014.9
20260901012902 32 65 0.0 4.8 0.00 0.00 0.00 51 1014.8
20260901012356 32 65 0.0 4.8 0.00 0.00 0.00 51 1014.7
20260901011850 32 65 0.0 4.8 0.00 0.00 0.00 51 1014.7
20260901011343 32 65 0.0 1.6 0.00 0.00 0.00 51 1014.6
20260901010838 32 65 0.0 1.6 0.00 0.00 0.00 51 1014.6
20260901010332 32 65 0.0 3.2 0.00 0.00 0.00 51 1014.6
20260901005826 32 65 0.0 3.2 0.00 0.00 0.00 50 1014.5
20260901005321 33 65 0.0 3.2 0.00 0.00 0.00 50 1014.4
20260901004814 33 65 0.0 3.2 0.00 0.00 0.00 50 1014.4
20260901004307 33 65 0.0 4.8 0.00 0.00 0.00 50 1014.5
20260901003802 33 65 1.6 4.8 0.00 0.00 0.00 49 1014.5
20260901003255 33 64 1.6 4.8 0.00 0.00 0.00 49 1014.5
20260901002750 33 64 1.6 4.8 0.00 0.00 0.00 49 1014.4
20260901002244 33 64 1.6 4.8 0.00 0.00 0.00 49 1014.4
20260901001738 33 63 3.2 9.7 0.00 0.00 0.00 48 1014.3
20260901001232 33 63 3.2 9.7 0.00 0.00 0.00 48 1014.4
20260901000959 33 99 3.2 9.7 0.00 0.00 0.00 47 1014.4
20260901000229 33 86 3.2 11.3 0.00 0.00 0.00 48 1014.3
20260831235959 34 114 3.2 11.3 0.00 0.00 0.00 48 1014.4
20260831235226 34 80 3.2 12.9 0.00 0.00 0.00 47 1014.3
20260831234726 34 129 4.8 19.3 0.00 0.00 0.00 47 1014.3
20260831234226 34 94 4.8 19.3 0.00 0.00 0.00 47 1014.2
20260831233729 35 68 3.2 12.9 0.00 0.00 0.00 47 1014.2
20260831233226 35 105 3.2 14.5 0.00 0.00 0.00 47 1014.2
20260831232226 35 114 3.2 12.9 0.00 0.00 0.00 46 1014.1
20260831231726 35 108 3.2 11.3 0.00 0.00 0.00 46 1014.1
20260831231226 35 166 4.8 12.9 0.00 0.00 0.00 45 1014.1
20260831230724 35 93 3.2 12.9 0.00 0.00 0.00 45 1014.2
20260831230224 35 145 3.2 11.3 0.00 0.00 0.00 45 1014.3
20260831225724 35 159 3.2 11.3 0.00 0.00 0.00 45 1014.4
20260831225222 35 163 4.8 11.3 0.00 0.00 0.00 45 1014.3
20260831224722 35 146 3.2 9.7 0.00 0.00 0.00 45 1014.4
20260831224217 35 119 1.6 8.0 0.00 0.00 0.00 45 1014.3
20260831223717 35 132 1.6 6.4 0.00 0.00 0.00 45 1014.4
20260831223218 35 132 1.6 6.4 0.00 0.00 0.00 45 1014.5
20260831222718 35 133 1.6 12.9 0.00 0.00 0.00 47 1014.5
20260831222218 35 132 3.2 12.9 0.00 0.00 0.00 46 1014.5
20260831221718 35 132 3.2 12.9 0.00 0.00 0.00 45 1014.5
20260831221218 35 113 3.2 12.9 0.00 0.00 0.00 45 1014.5
20260831220717 35 78 3.2 12.9 0.00 0.00 0.00 45 1014.5
20260831220217 35 133 4.8 16.1 0.00 0.00 0.00 45 1014.7
20260831215718 35 161 4.8 16.1 0.00 0.00 0.00 43 1014.9
20260831215215 36 115 3.2 11.3 0.00 0.00 0.00 44 1014.8
20260831214716 36 109 3.2 12.9 0.00 0.00 0.00 44 1015.0
20260831214216 35 182 4.8 12.9 0.00 0.00 0.00 44 1015.0
20260831213946 35 173 4.8 12.9 0.00 0.00 0.00 43 1015.2
20260831213446 35 150 3.2 11.3 0.00 0.00 0.00 43 1015.2
20260831212716 35 167 3.2 17.7 0.00 0.00 0.00 44 1015.3
20260831212447 35 201 3.2 17.7 0.00 0.00 0.00 46 1015.3
20260831211716 35 92 3.2 14.5 0.00 0.00 0.00 46 1015.4
20260831211217 35 115 3.2 14.5 0.00 0.00 0.00 46 1015.5
20260831210711 34 210 3.2 9.7 0.00 0.00 0.00 46 1015.5
20260831210205 34 69 3.2 11.3 0.00 0.00 0.00 48 1015.6
20260831205931 34 136 3.2 11.3 0.00 0.00 0.00 47 1015.7
20260831205426 35 90 4.8 17.7 0.00 0.00 0.00 48 1015.8
20260831204647 35 51 4.8 17.7 0.00 0.00 0.00 48 1015.9
20260831204413 35 146 3.2 12.9 0.00 0.00 0.00 47 1015.9
20260831203635 35 142 4.8 14.5 0.00 0.00 0.00 48 1016.2
20260831203129 35 158 4.8 19.3 0.00 0.00 0.00 48 1016.2
20260831202623 35 145 4.8 16.1 0.00 0.00 0.00 48 1016.3
20260831202118 35 173 4.8 19.3 0.00 0.00 0.00 48 1016.3
20260831201612 35 98 3.2 19.3 0.00 0.00 0.00 48 1016.4
20260831201105 35 88 3.2 16.1 0.00 0.00 0.00 49 1016.4
20260831200600 35 104 3.2 14.5 0.00 0.00 0.00 48 1016.5
20260831200054 34 155 3.2 14.5 0.00 0.00 0.00 48 1016.7
20260831195548 34 94 3.2 12.9 0.00 0.00 0.00 49 1016.8
20260831195312 34 86 4.8 12.9 0.00 0.00 0.00 51 1016.9
20260831194535 34 162 4.8 17.7 0.00 0.00 0.00 51 1016.9
20260831194029 34 94 4.8 17.7 0.00 0.00 0.00 50 1017.0
20260831193523 34 181 3.2 12.9 0.00 0.00 0.00 51 1017.0
20260831193249 34 119 3.2 14.5 0.00 0.00 0.00 52 1017.1
20260831192512 34 157 3.2 16.1 0.00 0.00 0.00 51 1017.1
20260831192236 34 99 4.8 16.1 0.00 0.00 0.00 52 1017.3
20260831191459 34 157 3.2 11.3 0.00 0.00 0.00 52 1017.3
20260831190954 35 49 3.2 11.3 0.00 0.00 0.00 51 1017.3
20260831190448 34 171 3.2 9.7 0.00 0.00 0.00 50 1017.3
20260831185941 34 248 3.2 9.7 0.00 0.00 0.00 52 1017.4
20260831185707 34 194 3.2 11.3 0.00 0.00 0.00 52 1017.5
20260831184929 33 127 1.6 11.3 0.00 0.00 0.00 54 1017.6
20260831184423 33 153 3.2 14.5 0.00 0.00 0.00 53 1017.6
20260831183917 33 255 4.8 17.7 0.00 0.00 0.00 55 1017.7
20260831183411 33 158 3.2 17.7 0.00 0.00 0.00 54 1017.8
20260831183138 33 173 3.2 14.5 0.00 0.00 0.00 53 1017.8
20260831182400 33 209 3.2 14.5 0.00 0.00 0.00 54 1017.9
20260831182124 32 173 3.2 8.0 0.00 0.00 0.00 57 1017.9
20260831181348 32 88 3.2 12.9 0.00 0.00 0.00 58 1017.9
20260831180842 32 150 3.2 12.9 0.00 0.00 0.00 59 1018.1
20260831180611 32 131 3.2 12.9 0.00 0.00 0.00 58 1018.2
20260831175830 32 171 3.2 14.5 0.00 0.00 0.00 58 1018.1
20260831175324 32 203 4.8 19.3 0.00 0.00 0.00 59 1018.2
20260831174817 32 186 4.8 19.3 0.00 0.00 0.00 58 1018.4
20260831174311 32 88 4.8 12.9 0.00 0.00 0.00 61 1018.3
20260831173805 32 128 4.8 12.9 0.00 0.00 0.00 62 1018.3
20260831172753 32 213 3.2 11.3 0.00 0.00 0.00 64 1018.4
20260831171741 31 187 3.2 11.3 0.00 0.00 0.00 64 1018.4
20260831171235 31 76 3.2 11.3 0.00 0.00 0.00 64 1018.4
20260831171000 31 186 3.2 11.3 0.00 0.00 0.00 64 1018.4
20260831165717 31 241 3.2 11.3 0.00 0.00 0.00 65 1018.6
20260831165212 31 159 3.2 12.9 0.00 0.00 0.00 64 1018.6
20260831164706 31 165 3.2 12.9 0.00 0.00 0.00 65 1018.6
20260831164159 31 122 3.2 14.5 0.00 0.00 0.00 65 1018.6
20260831163924 31 155 4.8 16.1 0.00 0.00 0.00 66 1018.5
20260831163147 31 166 4.8 16.1 0.00 0.00 0.00 67 1018.6
20260831162641 31 82 3.2 12.9 0.00 0.00 0.00 68 1018.6
20260831162136 31 269 3.2 12.9 0.00 0.00 0.00 67 1018.7
20260831161629 30 113 3.2 11.3 0.00 0.00 0.00 69 1018.6
20260831161124 30 98 3.2 12.9 0.00 0.00 0.00 68 1018.6
20260831160618 30 157 3.2 12.9 0.00 0.00 0.00 69 1018.5
20260831160117 30 55 3.2 11.3 0.00 0.00 0.00 69 1018.5
20260831155849 30 188 3.2 11.3 0.00 0.00 0.00 70 1018.5
20260831155117 30 175 1.6 11.3 0.00 0.00 0.00 70 1018.5
20260831154849 30 164 1.6 11.3 0.00 0.00 0.00 72 1018.6
20260831154117 30 153 3.2 11.3 0.00 0.00 0.00 72 1018.5
20260831153847 30 163 4.8 14.5 0.00 0.00 0.00 71 1018.6
20260831153117 30 178 3.2 14.5 0.00 0.00 0.00 72 1018.4
20260831152848 30 129 1.6 9.7 0.00 0.00 0.00 73 1018.4
20260831152117 30 193 1.6 8.0 0.00 0.00 0.00 73 1018.4
20260831151617 29 144 1.6 11.3 0.00 0.00 0.00 74 1018.3
20260831151115 29 94 3.2 12.9 0.00 0.00 0.00 74 1018.4
20260831150845 29 155 3.2 12.9 0.00 0.00 0.00 74 1018.4
20260831150111 29 192 3.2 11.3 0.00 0.00 0.00 74 1018.3
20260831145611 28 159 1.6 9.7 0.00 0.00 0.00 76 1018.3
20260831145111 28 247 3.2 9.7 0.00 0.00 0.00 77 1018.3
20260831144610 28 221 3.2 11.3 0.00 0.00 0.00 78 1018.3
20260831144111 27 163 3.2 11.3 0.00 0.00 0.00 79 1018.4
20260831143610 27 169 3.2 9.7 0.00 0.00 0.00 80 1018.4
20260831143110 27 169 1.6 9.7 0.00 0.00 0.00 81 1018.3
20260831142610 27 169 1.6 9.7 0.00 0.00 0.00 81 1018.3
20260831142111 27 190 1.6 8.0 0.00 0.00 0.00 82 1018.2
20260831141609 27 172 1.6 8.0 0.00 0.00 0.00 82 1018.3
20260831141109 26 171 1.6 9.7 0.00 0.00 0.00 83 1018.2
20260831140609 26 169 1.6 9.7 0.00 0.00 0.00 84 1018.1
20260831140339 26 168 1.6 8.0 0.00 0.00 0.00 85 1017.9
20260831135840 26 155 1.6 8.0 0.00 0.00 0.00 86 1018.1
20260831135109 26 153 1.6 8.0 0.00 0.00 0.00 87 1018.1
20260831134837 26 153 1.6 9.7 0.00 0.00 0.00 87 1018.1
20260831134107 26 152 1.6 9.7 0.00 0.00 0.00 87 1018.1
20260831133835 26 152 1.6 8.0 0.00 0.00 0.00 87 1017.9
20260831133105 26 148 1.6 8.0 0.00 0.00 0.00 88 1017.9
20260831132607 26 148 1.6 6.4 0.00 0.00 0.00 88 1017.8
20260831132106 26 148 1.6 4.8 0.00 0.00 0.00 88 1017.8
20260831131602 25 148 0.0 4.8 0.00 0.00 0.00 88 1017.8
20260831131055 25 148 0.0 4.8 0.00 0.00 0.00 88 1017.8
20260831130549 25 148 0.0 4.8 0.00 0.00 0.00 89 1017.8
20260831130043 25 148 0.0 4.8 0.00 0.00 0.00 89 1017.7
20260831125537 25 148 0.0 3.2 0.00 0.00 0.00 89 1017.7
20260831125030 25 148 1.6 4.8 0.00 0.00 0.00 89 1017.6
20260831124524 25 148 1.6 4.8 0.00 0.00 0.00 89 1017.6
20260831124019 25 147 1.6 6.4 0.00 0.00 0.00 89 1017.5
20260831123513 25 213 1.6 6.4 0.00 0.00 0.00 88 1017.4
20260831123237 25 213 1.6 4.8 0.00 0.00 0.00 88 1017.4
20260831122501 25 213 1.6 4.8 0.00 0.00 0.00 88 1017.4
20260831121955 25 213 1.6 4.8 0.00 0.00 0.00 88 1017.3
20260831121449 25 213 1.6 6.4 0.00 0.00 0.00 88 1017.3
20260831120942 25 213 1.6 6.4 0.00 0.00 0.00 88 1017.4
20260831120436 25 213 1.6 6.4 0.00 0.00 0.00 88 1017.3
20260831120201 25 213 1.6 6.4 0.00 0.00 0.00 88 1017.3
20260831115425 25 213 1.6 4.8 0.00 0.00 0.00 88 1017.2
20260831114919 25 213 1.6 6.4 0.00 0.00 0.00 88 1017.3
20260831114413 25 215 1.6 6.4 0.00 0.00 0.00 88 1017.3
20260831113907 25 219 1.6 6.4 0.00 0.00 0.00 88 1017.3
20260831113401 25 221 0.0 6.4 0.00 0.00 0.00 88 1017.1
20260831112854 25 223 1.6 6.4 0.00 0.00 0.00 88 1017.2
20260831112348 25 223 1.6 6.4 0.00 0.00 0.00 87 1017.2
20260831111843 25 223 0.0 6.4 0.00 0.00 0.00 87 1017.3
20260831111609 25 224 1.6 8.0 0.00 0.00 0.00 87 1017.2
20260831110830 25 227 3.2 8.0 0.00 0.00 0.00 87 1017.3
20260831110324 25 194 1.6 8.0 0.00 0.00 0.00 87 1017.3
20260831110051 25 196 1.6 4.8 0.00 0.00 0.00 87 1017.2
20260831105312 25 196 1.6 4.8 0.00 0.00 0.00 87 1017.4
20260831104806 25 194 1.6 8.0 0.00 0.00 0.00 87 1017.3
20260831104300 25 195 3.2 11.3 0.00 0.00 0.00 86 1017.4
20260831103754 25 170 3.2 11.3 0.00 0.00 0.00 86 1017.4
20260831103249 25 222 3.2 11.3 0.00 0.00 0.00 86 1017.3
20260831102743 25 184 3.2 11.3 0.00 0.00 0.00 86 1017.4
20260831102237 25 165 3.2 11.3 0.00 0.00 0.00 86 1017.4
20260831102001 25 159 3.2 11.3 0.00 0.00 0.00 86 1017.4
20260831101225 25 192 3.2 11.3 0.00 0.00 0.00 86 1017.4
20260831100216 25 180 1.6 11.3 0.00 0.00 0.00 86 1017.4
20260831095714 25 179 3.2 11.3 0.00 0.00 0.00 86 1017.4
20260831095214 25 155 3.2 16.1 0.00 0.00 0.00 86 1017.4
20260831094714 25 169 3.2 16.1 0.00 0.00 0.00 86 1017.4
20260831094444 25 150 3.2 14.5 0.00 0.00 0.00 86 1017.4
20260831093714 25 226 3.2 12.9 0.00 0.00 0.00 86 1017.4
20260831093214 25 229 4.8 12.9 0.00 0.00 0.00 86 1017.3
20260831092714 25 194 3.2 14.5 0.00 0.00 0.00 86 1017.3
20260831092444 25 169 3.2 14.5 0.00 0.00 0.00 86 1017.3
20260831091717 25 197 3.2 14.5 0.00 0.00 0.00 86 1017.3
20260831091214 25 207 3.2 14.5 0.00 0.00 0.00 86 1017.3
20260831090714 25 162 3.2 11.3 0.00 0.00 0.00 86 1017.3
20260831090214 25 162 4.8 14.5 0.00 0.00 0.00 86 1017.3
20260831085714 25 164 3.2 14.5 0.00 0.00 0.00 86 1017.3
20260831085212 25 145 3.2 11.3 0.00 0.00 0.00 86 1017.3
20260831084710 25 225 3.2 11.3 0.00 0.00 0.00 86 1017.3
20260831084210 25 179 3.2 9.7 0.00 0.00 0.00 86 1017.4
20260831083706 25 179 3.2 9.7 0.00 0.00 0.00 86 1017.3
20260831083205 25 186 3.2 11.3 0.00 0.00 0.00 86 1017.3
20260831082705 25 233 3.2 11.3 0.00 0.00 0.00 86 1017.4
20260831082206 25 161 1.6 11.3 0.00 0.00 0.00 86 1017.4
20260831081706 25 167 1.6 11.3 0.00 0.00 0.00 86 1017.4